Simultaneous Nadir Overpasses (SNOs) Predictions

Prediction of SNOs between GOES-16 and TERRA Satellite Orbit:

Table of predicted SNOs for the next 14.0 days since TLE Epoch: 7/26/2018
Index Date Time (GOES-16) GOES-16 Lat,Lon TERRA Lat,Lon Distance(km) Time Diff (sec)
1 07/27/2018 03:37:20 -0.02, -75.17 -0.27, -76.30 128.89 80
2 07/29/2018 03:22:29 -0.01, -75.19 0.40, -73.36 209.56 80
3 07/29/2018 15:46:24 0.02, -75.21 0.73, -78.51 375.41 80
4 07/31/2018 15:34:13 0.02, -75.24 0.07, -75.56 36.23 80
5 08/02/2018 15:19:21 0.01, -75.27 -0.55, -72.60 303.60 80
6 08/03/2018 03:43:25 -0.02, -75.27 -0.55, -77.79 286.16 80
7 08/05/2018 03:28:33 -0.02, -75.31 0.06, -74.83 54.07 80
8 08/07/2018 03:16:22 -0.02, -75.34 0.74, -71.88 394.36 80
9 08/07/2018 15:40:17 0.03, -75.36 0.40, -77.03 190.32 80
10 08/09/2018 15:25:26 0.03, -75.40 -0.28, -74.08 150.32 80




NCC Satellite Simultaneous Nadir Overpasses (SNOs) Prediction Service
